Miscellaneous Local Product
Issued by NWS North Platte, NE

Home | Current Version | Previous Version | Graphics & Text | Print | Product List | Glossary On
Versions: 1 2 3 4 5 6 7 8 9 10 11 12 13 14 15 16 17 18 19 20 21 22 23 24 25 26 27 28 29 30 31 32 33 34 35 36 37 38 39 40 41 42 43 44 45 46 47 48 49 50
926
AXUS43 KLBF 211710
MISLBF


WESTERN AND NORTH CENTRAL NEBRASKA HOURLY WEATHER ROUNDUP
NATIONAL WEATHER SERVICE NORTH PLATTE NE
1100 AM CST TUE FEB 21 2017

NOTE: "FAIR" INDICATES FEW OR NO CLOUDS BELOW 12,000 FEET WITH NO
SIGNIFICANT WEATHER AND/OR OBSTRUCTIONS TO VISIBILITY.

NOTE: STATIONS NOT REPORTING VARIABLES SUCH AS SKY/WEATHER OR
PRESSURE ARE PROVIDED BY RAWS AND APRS NETWORKS AND ARE NOT UNDER
NATIONAL WEATHER SERVICE QUALITY CONTROL.

...OBSERVATIONS IN AND NEAR THE EASTERN PANHANDLE OF NEBRASKA...

CITY           SKY/WX    TMP DP  RH WIND       PRES   REMARKS
PINE RIDGE     SUNNY     63  34  33 W22G33    29.83R
CHADRON        SUNNY     64  33  31 W28G38    29.85F
ALLIANCE       SUNNY     63  30  28 W18G28    29.90F
SIDNEY         SUNNY     65  27  23 W21G29    29.99R
CRESCENT LAKE    N/A     62  29  29 W12G20      N/A
$$

...OBSERVATIONS IN NORTHERN NEBRASKA AND FAR SOUTHERN SOUTH DAKOTA...

CITY           SKY/WX    TMP DP  RH WIND       PRES   REMARKS
WINNER         FAIR      69  32  25 W15G25    29.77F
VALENTINE      SUNNY     66  29  24 SW24G32   29.81F
THEDFORD       SUNNY     67  31  26 W16G23    29.90F
AINSWORTH      SUNNY     65  32  29 SW18      29.84S
O`NEILL        SUNNY     65  25  22 SW13      29.84F
ORD            SUNNY     63  21  20 SW24      29.89F
BROKEN BOW     SUNNY     63  26  24 SW14      29.92F
BUTTE            N/A     59  32  36 SW9G17      N/A
HALSEY           N/A     57  23  27 SW6G13      N/A
CHAMBERS         N/A     64  29  27 SW9         N/A
EWING            N/A     61  30  31 SW12        N/A
$$

...OBSERVATIONS IN SOUTHWEST NEBRASKA AND FAR NORTHEAST COLORADO...

CITY           SKY/WX    TMP DP  RH WIND       PRES   REMARKS
HOLYOKE        FAIR      68  25  19 SW9       30.00F
IMPERIAL       SUNNY     66  25  21 W14       29.98F
OGALLALA       SUNNY     61  27  28 SW9       29.96S
NORTH PLATTE   SUNNY     60  26  27 W8        29.95F
MCCOOK         SUNNY     60  25  26 W6        29.99S
LEXINGTON      SUNNY     62  20  19 SW22G28   29.96F
STAPLETON        N/A     59  31  35 CALM        N/A
GOTHENBURG       N/A     65  23  20 W6          N/A
CALLAWAY         N/A     63  29  27 W14         N/A
$$

...OBSERVATIONS IN CENTRAL LINCOLN COUNTY AREA...

CITY           SKY/WX    TMP DP  RH WIND       PRES   REMARKS
N.P. AIRPORT   SUNNY     60  26  27 W8        29.95F
N.P. DOWNTOWN    N/A     58  31  36 CALM        N/A
N.P. SOUTHEAST   N/A     60  30  32 W3          N/A
N.P. HILLCREST   N/A     55  30  38 W5          N/A
$$

...SOME OBSERVATIONS FROM AROUND THE REGION...

CITY           SKY/WX    TMP DP  RH WIND       PRES   REMARKS
LARAMIE        SUNNY     48  26  42 SW33G43   30.08F
CHEYENNE       SUNNY     57  22  25 W44G53    30.04F
DENVER         MOSUNNY   65  18  16 W18G25    30.07R
AKRON          SUNNY     64  25  22 W28G35    30.04S
SCOTTSBLUFF    SUNNY     66  28  24 W35G41    29.90F
RAPID CITY     SUNNY     65  32  29 W20G29    29.75S
BISMARCK       MOSUNNY   44  32  62 S3        29.70S
PIERRE         SUNNY     58  35  42 W10       29.74R
SIOUX FALLS    PTSUNNY   52  37  56 SW10G17   29.81F
OMAHA          MOSUNNY   56  43  61 S6        29.98F
GRAND ISLAND   SUNNY     61  33  35 SW24      29.96F
KANSAS CITY    MOSUNNY   61  45  55 NE3       30.00R
WICHITA        MOSUNNY   59  41  51 N8        30.03F
OKLAHOMA CITY  SUNNY     60  45  57 NW17      30.03R
DALLAS         SUNNY     65  49  56 NW10      29.99R
AMARILLO       SUNNY     63  18  17 S10       30.15R
DODGE CITY     SUNNY     62  30  29 S16       30.07F
HAYS           SUNNY     61  34  36 SW15      30.05F
GOODLAND       SUNNY     64  24  21 N7        30.04R
$$




USA.gov is the U.S. government's official web portal to all federal, state and local government web resources and services.